Terug naar catalogus

COSMOS 2595

GLONASS

ActiefNavigatieMEO
NORAD 65590·PAYLOAD·🇷🇺 Russia

Gelanceerd Sep 13, 2025 vanaf Plesetsk Cosmodrome

Loading…

Volgende Passages (komende 24 uur)

TLE

VersSource: CelesTrak SupGP

Epoch: Sep 12, 2026, 23:59 UTC

1 65590C 25206B   26255.99979167  .00000000  00000+0  00000+0 0  2550
2 65590  64.5780 311.9242 0012323 301.6845 256.9342  2.13100834    11

Volg COSMOS 2595 in realtime met AllMySat

Download on the App Store